Find Starlink 34822

NORAD ID: 65086 Int'l Des: 2025-167 Owner: SPXS Country: US Constellation: starlink operational
LEOCIRCULAR

当前视图

正在加载3D地球...

About Starlink 34822

Starlink 34822 (NORAD 65086) is a starlink constellation satellite (v2 mini) launched Aug 4, 2025 by SPXS of US. It operates in LEO, CIRCULAR orbit with a mass of 575.00 kg.

关于 Starlink 34822

正在加载描述...

即将过境

Passes for default location (London). Set your location on the main map for personalized predictions.

高度历史

Loading altitude history...

两行轨道根数

1 65086U 25167J 26174.94991755 .00018616 00000-0 63883-3 0 9998
2 65086 53.1590 253.4576 0001284 82.3122 277.8024 15.30213261 49743
Epoch: Jun 23, 2026 • Age: 27 hours

当前状态

高度 480.0 km
速度 7.63 km/s
星下点 49.73°N, 10.22°E
发射日期 Aug 4, 2025
运行时间 0.8 years
类型 internet

技术详情

分类 Payload
质量 575.00 kg
干质量 530.00 kg
总质量 575.00 kg
长度 0.30 m
直径 4.10 m
跨度 29.00 m
形状 Box + pan
制造商 SPXS
平台类型 Starlink V2MO
阶段状态 In Orbit
所有者/国家 SPXS/US

Most Searched